Location: Tr�vern
(48.0333°N, 4.6000°W)
Time: 18:10:14
(UTC+00:00)

Cosmos 921 Rocket - Pass Details

Date: 14 July 2020
Orbit: 572 x 631 km, 75.8° (Epoch: 12 August)

Event Time Altitude Azimuth Distance (km) Brightness Sun altitude
Rises 02:05:06 0° 344° (NNW) 2,905 7.3 -16.8°
Reaches altitude 10° 02:07:28 10° 351° (N) 1,985 6.5 -16.6°
Maximum altitude 02:11:44 45° 65° (ENE) 833 4.1 -16.3°
Drops below altitude 10° 02:15:52 10° 138° (SE) 1,935 5.4 -16.0°
Enters shadow 02:17:10 - 143° (SE) 2,437 5.9 -15.9°
